Regional Weather Roundup
Issued by NWS

Home | Current Version | Previous Version | Graphics & Text | Print | Product List | Glossary On
Versions: 1 2 3 4 5 6 7 8 9 10 11 12 13 14 15 16 17 18 19 20 21 22 23 24 25 26 27 28 29 30 31 32 33 34 35 36 37 38 39 40 41 42 43 44 45 46 47 48 49 50
000
ASUS43 KLMK 290602
RWRKY
KENTUCKY REGIONAL WEATHER ROUNDUP
NATIONAL WEATHER SERVICE LOUISVILLE KY
200 AM EDT FRI APR 29 2016

NOTE "FAIR" INDICATES FEW OR NO CLOUDS BELOW 12,000 FEET
WITH NO SIGNIFICANT WEATHER AND/OR OBSTRUCTIONS TO VISIBILITY.

KYZ001>023-026-027-061>063-070>075-290700-
WESTERN AND SOUTH CENTRAL KENTUCKY

CITY           SKY/WX    TMP DP  RH WIND       PRES   REMARKS
PADUCAH        CLEAR     56  51  84 MISG      29.99R
HENDERSON      CLEAR     61  52  72 NW3       30.00R
OWENSBORO      CLEAR     63  54  72 NW6       30.00S
HOPKINSVILLE   CLEAR     61  53  75 CALM      29.99S
BOWLING GREEN  CLEAR     57  52  83 CALM      30.00R
GLASGOW        NOT AVBL
$$

KYZ024-025-028>034-038-045-046-053-290700-
NORTH CENTRAL KENTUCKY

CITY           SKY/WX    TMP DP  RH WIND       PRES   REMARKS
LOUISVILLE/SDF CLEAR     61  50  67 NW5       29.98R
LOUISVILLE/LOU CLEAR     62  50  64 NW3       29.98S
FORT KNOX      CLEAR     55  51  86 W5        29.98R
$$

KYZ035>037-039>044-047>052-055>060-089>105-290700-
NORTHEAST KENTUCKY

CITY           SKY/WX    TMP DP  RH WIND       PRES   REMARKS
LEXINGTON      PTCLDY    58  48  69 W6        29.98R
COVINGTON      FOG       57  56  96 NW8       29.97R VSB 1/2
FRANKFORT      PTCLDY    57  49  74 NW6       29.97R
$$

KYZ054-064>069-076>088-106>120-290700-
SOUTHEAST KENTUCKY

CITY           SKY/WX    TMP DP  RH WIND       PRES   REMARKS
JACKSON        CLEAR     63  49  60 W3        29.98S
LONDON         CLEAR     57  54  89 CALM      30.00R
SOMERSET       NOT AVBL
MIDDLESBORO    CLEAR     67  52  58 W6        29.99S
MONTICELLO     CLEAR     55  53  93 NE9       30.03R
$$





USA.gov is the U.S. government's official web portal to all federal, state and local government web resources and services.